Weather History for PAWD - November, 2012

Change the Weather History Date:

Saturday, November 10, 2012

  Actual Average Record
Temperature  
Mean Temperature 40 °F -  
Max Temperature 45 °F 37 °F 48 °F (1970)
Min Temperature 34 °F 27 °F 10 °F (1989)
Degree Days  
Heating Degree Days 26    
Moisture  
Dew Point 31 °F    
Average Humidity 66    
Maximum Humidity 96    
Minimum Humidity 58    
Precipitation  
Precipitation 0.00 in - - ()
Sea Level Pressure  
Sea Level Pressure 29.54 in    
Wind  
Wind Speed 10 mph (NNW)    
Max Wind Speed 18 mph    
Max Gust Speed 25 mph    
Visibility 10 miles    
Events Rain    
Averages and records for this station are not official NWS values.
T = Trace of Precipitation, MM = Missing Value Source: NWS Daily Summary

Daily Weather History Graph

Daily Weather History Graph

Search for Another Location

Airport or City:

Trip Planner

Search our weather history database for the weather conditions in past years. The results will help you decide how hot, cold, wet, or windy it might be!

Date:

Astronomy

Nov. 10, 2012 Rise Set
Actual Time 8:45 AM AKST 4:36 PM AKST
Civil Twilight 7:57 AM AKST 5:24 PM AKST
Nautical Twilight 7:06 AM AKST 6:16 PM AKST
Astronomical Twilight 6:17 AM AKST 7:04 PM AKST
Moon 4:12 AM AKST (11/10) 3:11 PM AKST (11/10)
Length of Visible Light 9h 27m
Length of Day
7h 51m
Waning Crescent, 13% of the Moon is Illuminated
Nov 10
Waning Crescent
Nov 13
New
Nov 20
First Quarter
Nov 28
Full
Dec 6
Last Quarter

Hourly Weather History & Observations

Time (AKST) Temp. Windchill Dew Point Humidity Pressure Visibility Wind Dir Wind Speed Gust Speed Precip Events Conditions
12:53 AM 34.0 °F 31.0 °F 33.1 °F 96% 29.69 in 5.0 mi Variable 3.5 mph - N/A   Overcast
1:53 AM 37.0 °F 32.4 °F 33.1 °F 86% 29.67 in 10.0 mi NW 5.8 mph - N/A   Overcast
3:53 AM 39.0 °F 32.3 °F 33.1 °F 79% 29.62 in 10.0 mi North 10.4 mph - N/A   Overcast
4:53 AM 39.0 °F 31.0 °F 32.0 °F 76% 29.60 in 10.0 mi NNW 13.8 mph 20.7 mph N/A   Overcast
5:53 AM 41.0 °F 35.2 °F 30.0 °F 65% 29.59 in 10.0 mi NNW 9.2 mph 18.4 mph N/A   Overcast
6:53 AM 42.1 °F 36.1 °F 30.0 °F 62% 29.56 in 10.0 mi NNW 10.4 mph - N/A   Overcast
7:53 AM 42.1 °F 35.2 °F 30.0 °F 62% 29.55 in 10.0 mi North 12.7 mph 19.6 mph N/A   Overcast
8:53 AM 43.0 °F 35.7 °F 30.9 °F 62% 29.54 in 10.0 mi North 15.0 mph 19.6 mph N/A   Overcast
9:53 AM 42.1 °F 36.1 °F 32.0 °F 67% 29.54 in 10.0 mi NNW 10.4 mph 20.7 mph 0.00 in Rain Light Rain
10:53 AM 41.0 °F 34.7 °F 32.0 °F 70% 29.52 in 10.0 mi North 10.4 mph - 0.00 in   Overcast
11:53 AM 42.1 °F 34.9 °F 33.1 °F 70% 29.52 in 10.0 mi North 13.8 mph 23.0 mph N/A   Overcast
12:53 PM 44.1 °F 37.7 °F 32.0 °F 63% 29.51 in 10.0 mi NNW 12.7 mph 21.9 mph N/A   Overcast
1:53 PM 45.0 °F 37.4 °F 30.9 °F 58% 29.50 in 10.0 mi NNW 18.4 mph 25.3 mph N/A   Overcast
2:53 PM 44.1 °F 36.8 °F 32.0 °F 63% 29.49 in 10.0 mi NW 16.1 mph 23.0 mph N/A   Overcast
3:53 PM 44.1 °F 37.4 °F 30.9 °F 60% 29.49 in 10.0 mi NNW 13.8 mph 21.9 mph N/A   Overcast
4:53 PM 45.0 °F 38.5 °F 30.9 °F 58% 29.48 in 10.0 mi NNW 13.8 mph 24.2 mph N/A   Overcast
5:53 PM 45.0 °F 38.5 °F 30.9 °F 58% 29.49 in 10.0 mi NNW 13.8 mph 20.7 mph N/A   Overcast
6:53 PM 45.0 °F 40.6 °F 30.9 °F 58% 29.49 in 10.0 mi North 8.1 mph - N/A   Overcast
7:53 PM 44.1 °F 39.0 °F 30.9 °F 60% 29.50 in 10.0 mi North 9.2 mph - N/A   Overcast
8:53 PM 44.1 °F 39.0 °F 30.9 °F 60% 29.51 in 10.0 mi NNW 9.2 mph - N/A   Overcast
9:53 PM 44.1 °F 40.1 °F 30.0 °F 58% 29.51 in 10.0 mi Variable 6.9 mph - N/A   Mostly Cloudy
10:53 PM 44.1 °F 38.6 °F 30.0 °F 58% 29.52 in 10.0 mi NNW 10.4 mph - N/A   Mostly Cloudy
11:53 PM 44.1 °F 39.0 °F 30.0 °F 58% 29.52 in 10.0 mi North 9.2 mph 18.4 mph N/A   Mostly Cloudy